Tracking 19476 objects as of 17-Jan-2019
HD Live streaming from Space Station
objects crossing your sky now

COSMOS 1383

Track COSMOS 1383 now!
10-day predictions
COSMOS 1383 is classified as:


NORAD ID: 13301
Int'l Code: 1982-066A
Perigee: 991.1 km
Apogee: 1,031.8 km
Inclination: 82.9 °
Period: 105.2 minutes
Semi major axis: 7382 km
RCS: 2.8382 m2 (large)
Launch date: June 29, 1982
Source: Commonwealth of Independent States (former USSR) (CIS)
Launch site: PLESETSK MISSILE AND SPACE COMPLEX (PKMTR)
aabbcc
Your satellite tracking list
Your tracking list is empty




NASA's NSSDC Master Catalog

Two Line Element Set (TLE):
1 13301U 82066A   19017.45223209  .00000044  00000-0  33574-4 0  9999
2 13301  82.9302 201.7000 0027585 167.3999 253.9272 13.68671904825588
Source of the keplerian elements: AFSPC